Total_Precipitation_Accumulation
1.02 0.83 0.66 0.38 0.21 0.15 0.09 0.09 0.07 0.05 0.04 0.04 0.04 0.03 0.03 0.04 0.03 0.04 0.03 0.03 0.02 0.02 0.02 0.01 0.01 0.02 0.00 0.00 0.00 0.00 0.00 0.00 0.00 0.00 0.00 0.00 0.00 0.00 0.00 0.00 0.00 0.00 0.00 0.00 0.00 0.00 0.03
1.81 1.55 1.34 1.13 0.87 0.51 0.33 0.20 0.12 0.08 0.08 0.14 0.17 0.16 0.14 0.12 0.10 0.08 0.05 0.03 0.02 0.03 0.02 0.02 0.01 0.02 0.00 0.00 0.00 0.00 0.00 0.00 0.00 0.00 0.00 0.00 0.00 0.00 0.00 0.00 0.00 0.00 0.00 0.00 0.00 0.00 0.01
2.21 2.04 1.86 1.62 1.40 1.29 1.20 0.93 0.69 0.61 0.69 0.73 0.55 0.43 0.31 0.21 0.15 0.12 0.08 0.04 0.03 0.04 0.03 0.02 0.02 0.02 0.00 0.00 0.00 0.00 0.00 0.00 0.00 0.00 0.00 0.00 0.00 0.00 0.00 0.00 0.00 0.00 0.00 0.00 0.00 0.00 0.02
1.70 2.00 2.04 1.97 1.73 1.53 1.31 1.24 1.23 1.24 1.23 1.13 0.96 0.68 0.44 0.29 0.21 0.18 0.16 0.11 0.09 0.07 0.05 0.04 0.02 0.02 0.00 0.00 0.00 0.00 0.00 0.00 0.00 0.00 0.00 0.00 0.00 0.00 0.00 0.00 0.00 0.00 0.00 0.01 0.01 0.00 0.01
0.94 1.13 1.44 1.64 1.70 1.62 1.51 1.36 1.13 0.98 0.92 0.91 0.80 0.66 0.53 0.34 0.24 0.20 0.18 0.17 0.16 0.13 0.08 0.03 0.02 0.01 0.00 0.00 0.00 0.00 0.00 0.00 0.00 0.00 0.00 0.00 0.00 0.00 0.00 0.00 0.00 0.00 0.00 0.00 0.01 0.01 0.01
0.91 0.90 0.98 1.06 1.11 1.11 1.11 1.11 1.09 0.96 0.80 0.71 0.68 0.56 0.46 0.40 0.30 0.27 0.26 0.25 0.20 0.10 0.04 0.02 0.04 0.01 0.00 0.00 0.00 0.00 0.00 0.00 0.00 0.00 0.00 0.00 0.00 0.00 0.00 0.00 0.01 0.00 0.00 0.00 0.00 0.00 0.00
1.01 0.91 0.90 0.83 0.79 0.78 0.85 0.90 0.71 0.71 0.69 0.66 0.61 0.57 0.52 0.50 0.47 0.38 0.29 0.21 0.16 0.10 0.05 0.01 0.01 0.00 0.00 0.00 0.00 0.00 0.00 0.00 0.00 0.01 0.00 0.00 0.00 0.00 0.00 0.00 0.00 0.00 0.00 0.00 0.00 0.00 0.00
1.07 0.88 0.90 0.91 0.85 0.75 0.68 0.82 0.85 0.65 0.57 0.52 0.47 0.47 0.47 0.47 0.46 0.35 0.20 0.18 0.11 0.12 0.09 0.02 0.02 0.02 0.00 0.00 0.01 0.00 0.00 0.00 0.01 0.05 0.03 0.01 0.01 0.00 0.00 0.00 0.00 0.00 0.00 0.00 0.00 0.00 0.00
1.09 0.89 0.79 0.82 0.83 0.87 0.88 0.90 0.86 0.81 0.59 0.53 0.52 0.51 0.59 0.73 0.87 0.78 0.42 0.16 0.03 0.02 0.10 0.01 0.00 0.00 0.00 0.02 0.04 0.00 0.00 0.00 0.01 0.04 0.09 0.04 0.01 0.00 0.01 0.03 0.02 0.01 0.00 0.00 0.00 0.00 0.00
1.38 1.20 1.11 1.01 0.91 0.88 0.96 0.89 0.80 0.84 0.81 0.65 0.63 0.65 0.70 0.84 1.08 0.56 0.54 0.29 0.15 0.11 0.58 0.08 0.00 0.00 0.00 0.00 0.01 0.00 0.00 0.00 0.01 0.03 0.08 0.14 0.02 0.02 0.02 0.02 0.01 0.04 0.00 0.01 0.01 0.02 0.05
1.60 1.50 1.43 1.34 1.31 1.28 1.11 1.00 1.02 0.95 0.97 0.90 0.82 0.63 0.60 0.55 0.48 0.38 0.27 0.19 0.21 0.47 1.28 0.07 0.00 0.00 0.00 0.00 0.00 0.00 0.00 0.00 0.02 0.02 0.11 0.10 0.04 0.06 0.05 0.02 0.02 0.04 0.01 0.03 0.02 0.02 0.05
1.42 1.33 1.30 1.36 1.14 1.13 1.28 1.21 1.02 0.95 1.04 1.26 1.17 0.86 0.72 0.79 0.48 0.33 0.27 0.34 0.64 1.40 1.07 0.02 0.00 0.00 0.00 0.00 0.00 0.00 0.00 0.00 0.01 0.17 0.13 0.04 0.06 0.04 0.03 0.01 0.04 0.04 0.05 0.02 0.01 0.06 0.20
1.75 1.57 1.31 1.11 1.08 0.96 1.02 1.12 1.07 1.08 1.09 1.16 1.41 1.35 1.01 0.63 0.47 0.29 0.32 0.69 1.47 1.22 0.14 0.02 0.00 0.00 0.00 0.00 0.00 0.00 0.00 0.00 0.02 0.08 0.07 0.04 0.07 0.02 0.00 0.01 0.01 0.08 0.21 0.27 0.22 0.16 0.10
1.58 1.65 1.43 1.03 0.93 0.84 0.71 0.81 0.88 0.73 0.79 0.95 1.18 1.61 1.44 0.70 0.51 0.48 1.00 1.63 1.37 0.18 0.01 0.00 0.00 0.00 0.00 0.00 0.00 0.00 0.00 0.01 0.00 0.00 0.05 0.09 0.06 0.00 0.00 0.00 0.03 0.03 0.11 0.22 0.30 0.19 0.12
1.07 1.40 1.61 1.47 1.15 0.94 0.76 0.73 0.88 1.11 0.99 1.00 1.33 1.71 1.58 0.91 0.64 0.86 1.99 2.50 0.54 0.06 0.01 0.02 0.04 0.03 0.00 0.00 0.00 0.00 0.00 0.01 0.00 0.00 0.03 0.05 0.03 0.00 0.00 0.00 0.04 0.18 0.17 0.10 0.47 0.46 0.49
1.03 1.11 1.38 1.46 1.63 1.38 1.06 0.72 0.81 1.10 1.51 1.74 2.12 2.06 1.51 0.91 1.25 2.15 3.43 1.74 0.07 0.01 0.00 0.03 0.13 0.20 0.01 0.01 0.02 0.01 0.02 0.03 0.04 0.02 0.00 0.06 0.13 0.02 0.00 0.01 0.01 0.10 0.23 0.67 1.00 0.87 0.40
1.41 1.07 1.10 1.31 1.41 1.75 1.74 1.35 0.96 1.09 1.51 2.11 2.77 2.96 1.61 1.05 2.58 4.52 3.88 1.02 0.03 0.01 0.01 0.04 0.05 0.10 0.03 0.02 0.03 0.06 0.10 0.16 0.11 0.09 0.05 0.05 0.11 0.08 0.05 0.03 0.05 0.11 0.33 0.62 0.81 0.50 0.56
1.63 1.50 1.32 1.54 1.14 1.44 1.78 2.22 1.60 1.41 1.87 2.79 3.83 3.21 1.34 1.92 3.92 4.08 1.80 0.26 0.03 0.03 0.03 0.04 0.04 0.05 0.04 0.02 0.02 0.03 0.05 0.12 0.05 0.07 0.17 0.22 0.28 0.12 0.02 0.00 0.02 0.09 0.17 0.49 1.14 0.98 0.84
1.30 1.42 1.58 2.11 1.64 1.39 1.35 1.80 2.38 1.96 2.47 3.28 4.10 2.71 2.03 2.60 3.44 2.05 0.79 0.19 0.08 0.05 0.06 0.10 0.07 0.03 0.02 0.02 0.05 0.05 0.08 0.11 0.07 0.10 0.23 0.33 0.63 0.53 0.27 0.22 0.13 0.12 0.18 0.35 0.64 0.96 0.87
1.37 1.12 1.34 1.68 1.82 1.66 1.50 1.48 1.73 2.36 2.91 3.77 4.57 3.49 4.04 3.74 1.74 0.96 0.93 0.51 0.27 0.12 0.14 0.19 0.16 0.10 0.09 0.09 0.06 0.07 0.13 0.14 0.15 0.21 0.36 0.50 0.48 0.53 0.47 0.38 0.44 0.35 0.22 0.33 0.97 1.50 0.94
1.42 1.35 1.24 1.29 1.47 1.62 1.55 1.64 1.72 2.05 3.10 5.04 5.95 2.98 1.75 2.55 1.60 0.72 0.61 0.56 0.31 0.32 0.27 0.22 0.65 0.42 0.28 0.25 0.16 0.15 0.23 0.22 0.24 0.33 0.53 0.87 0.84 0.60 0.39 0.29 0.34 0.42 0.32 0.26 0.49 0.61 0.96
1.46 1.32 1.15 1.22 1.11 1.48 1.63 1.62 1.76 2.19 3.52 6.07 5.36 1.86 0.92 0.50 0.46 0.73 0.86 0.67 0.34 0.24 0.25 0.33 0.49 0.20 0.24 0.31 0.21 0.28 0.39 0.44 0.42 0.39 0.59 0.94 0.95 0.66 0.42 0.40 0.33 0.25 0.11 0.25 0.36 0.38 0.53
1.33 1.24 1.13 1.01 1.02 1.14 1.63 1.71 1.78 2.33 4.54 7.15 4.24 1.26 1.21 1.04 0.48 0.80 0.71 0.39 0.36 0.37 0.29 0.20 0.31 0.33 0.31 0.34 0.33 0.32 0.31 0.32 0.38 0.47 0.66 0.77 0.92 0.84 0.52 0.30 0.58 0.47 0.08 0.12 0.20 0.36 0.59
1.25 1.09 1.18 1.06 0.88 0.91 1.28 1.67 1.80 2.35 3.73 3.94 2.73 1.58 1.99 1.42 0.89 0.51 0.18 0.18 0.19 0.26 0.34 0.21 0.34 0.67 0.36 0.20 0.32 0.42 0.44 0.31 0.29 0.28 0.42 0.76 0.79 1.13 0.78 0.46 1.01 0.25 0.17 0.27 0.28 0.45 0.54
1.22 1.21 1.18 1.32 1.18 0.92 1.02 1.47 1.57 2.04 2.66 2.54 2.29 2.06 2.39 1.77 0.45 0.42 0.33 0.25 0.24 0.36 0.36 0.32 0.28 0.41 0.45 0.64 1.09 0.95 0.66 0.74 0.44 0.30 0.30 0.36 0.67 1.16 1.05 0.82 0.38 0.16 0.28 0.53 0.62 0.62 0.44
1.14 1.26 1.44 1.19 1.29 1.09 0.95 1.26 1.42 1.65 2.40 2.21 2.01 1.95 2.96 2.47 0.99 0.26 0.34 0.41 0.51 0.51 0.71 0.52 0.59 0.49 0.64 1.21 1.58 1.17 0.77 0.56 0.44 0.41 0.26 0.46 0.64 1.25 0.96 1.08 0.70 0.73 0.26 0.21 0.62 0.72 0.31
1.34 1.32 1.65 1.49 1.09 1.20 0.96 1.07 1.28 1.35 1.77 2.13 1.90 1.67 3.17 3.59 1.03 0.53 0.60 0.60 0.55 0.60 0.83 0.70 0.94 0.96 1.00 1.47 1.71 1.46 0.74 0.32 0.60 0.84 0.62 0.62 0.89 1.10 0.83 1.00 0.73 0.47 0.26 0.36 0.75 0.75 0.25
1.51 1.49 1.39 1.57 1.34 1.14 0.99 0.89 1.25 1.32 1.50 2.07 1.73 1.49 2.49 3.00 1.16 0.84 0.60 0.66 0.59 0.62 0.90 0.90 1.49 1.49 1.38 1.32 1.06 0.98 0.96 0.47 0.70 1.13 0.67 0.80 0.89 0.96 1.20 1.65 1.02 0.12 0.30 0.64 0.83 0.46 0.31
1.50 1.41 1.22 1.12 1.60 1.24 1.02 0.96 1.37 1.66 1.69 2.07 1.98 1.39 1.91 2.88 1.59 0.83 0.51 0.43 0.35 0.34 0.47 0.72 1.06 1.11 1.31 1.13 0.71 0.64 0.67 0.60 0.68 0.91 0.88 1.45 1.19 1.27 1.00 0.97 0.56 0.30 0.43 0.49 0.41 0.42 0.44